Shannon, Ireland

6:50 AM IST on October 18, 2017 (GMT +0100)
Shannon

Weather History for EINN - January, 2013

Change the Weather History Date:

Tuesday, January 22, 2013

  Actual Average Record
Temperature  
Mean Temperature 30 °F -  
Max Temperature 33 °F 47 °F 53 °F (2008)
Min Temperature 26 °F 37 °F 23 °F (2011)
Degree Days  
Heating Degree Days 36    
Moisture  
Dew Point 29 °F    
Average Humidity 97    
Maximum Humidity 100    
Minimum Humidity 93    
Precipitation  
Precipitation 0.00 in 0.10 in - ()
Sea Level Pressure  
Sea Level Pressure 29.54 in    
Wind  
Wind Speed 4 mph ()    
Max Wind Speed 12 mph    
Max Gust Speed -    
Visibility 0.7 miles    
Events Fog , Rain    
Averages and records for this station are not official NWS values.
T = Trace of Precipitation, MM = Missing Value Source: Averaged Metar Reports

Daily Weather History Graph

Daily Weather History Graph

Search for Another Location

Airport or City:

Trip Planner

Search our weather history database for the weather conditions in past years. The results will help you decide how hot, cold, wet, or windy it might be!

Date:

Astronomy

Jan. 22, 2013 Rise Set
Actual Time 8:32 AM GMT 5:02 PM GMT
Civil Twilight 7:53 AM GMT 5:41 PM GMT
Nautical Twilight 7:11 AM GMT 6:24 PM GMT
Astronomical Twilight 6:30 AM GMT 7:04 PM GMT
Moon 1:09 PM GMT (1/22) 4:47 AM GMT (1/22)
Length of Visible Light 9h 48m
Length of Day
8h 30m
Waxing Gibbous, 81% of the Moon is Illuminated
Jan 22
Waxing Gibbous
Jan 27
Full
Feb 3
Last Quarter
Feb 10
New
Feb 17
First Quarter

Hourly Weather History & Observations

Time (GMT) Temp. Windchill Dew Point Humidity Pressure Visibility Wind Dir Wind Speed Gust Speed Precip Events Conditions
12:00 AM 29 °F - 28 °F 96% 29.37 in 2 mi NE 6.7 mph - - Fog Patches of Fog
12:00 AM 28.4 °F 23.3 °F 28.4 °F 100% 29.36 in 1.6 mi NE 4.6 mph - N/A Fog Shallow Fog
12:30 AM 28.4 °F 23.3 °F 26.6 °F 93% 29.36 in 1.9 mi NE 4.6 mph - N/A Fog Shallow Fog
1:00 AM 28.4 °F - 28.4 °F 100% 29.36 in 0.5 mi NNE 1.2 mph - N/A Fog Light Freezing Fog
1:30 AM 30.2 °F 26.7 °F 28.4 °F 93% 29.39 in 0.3 mi NE 3.5 mph - N/A Fog Light Freezing Fog
2:00 AM 30.2 °F - 28.4 °F 93% 29.39 in 0.4 mi ESE 1.2 mph - N/A Fog Light Freezing Fog
2:30 AM - - - N/A% 29.39 in 0.2 mi East 1.2 mph - N/A Fog Light Freezing Fog
3:00 AM 30.2 °F - 30.2 °F 100% 29.39 in 0.2 mi South 2.3 mph - N/A Fog Light Freezing Fog
3:30 AM 30.2 °F - 30.2 °F 100% 29.39 in 0.2 mi SW 2.3 mph - N/A Fog Light Freezing Fog
4:00 AM 30.2 °F 26.7 °F 30.2 °F 100% 29.42 in 0.2 mi SSW 3.5 mph - N/A Fog Light Freezing Fog
4:30 AM 30.2 °F - 28.4 °F 93% 29.42 in 0.2 mi SW 1.2 mph - N/A Fog Light Freezing Fog
5:00 AM 30.2 °F 26.7 °F 28.4 °F 93% 29.42 in 0.2 mi East 3.5 mph - N/A Fog Light Freezing Fog
5:30 AM 30.2 °F 26.7 °F 28.4 °F 93% 29.42 in 0.2 mi East 3.5 mph - N/A Fog Light Freezing Fog
6:00 AM 29 °F - 28 °F 96% 29.44 in 0 mi NNE 4.5 mph - - Fog Partial Fog
6:00 AM 28.4 °F 24.6 °F 28.4 °F 100% 29.42 in 0.1 mi NNE 3.5 mph - N/A Fog Light Freezing Fog
6:30 AM 26.6 °F 22.6 °F 26.6 °F 100% 29.44 in 0.2 mi North 3.5 mph - N/A Fog Light Freezing Fog
7:00 AM 26.6 °F - 26.6 °F 100% 29.44 in 0.1 mi West 1.2 mph - N/A Fog Light Freezing Fog
7:30 AM 26.6 °F - 26.6 °F 100% 29.47 in 0.1 mi Calm Calm - N/A Fog Light Freezing Fog
8:00 AM 26.6 °F - 26.6 °F 100% 29.47 in 0.1 mi ENE 2.3 mph - N/A Fog Light Freezing Fog
8:30 AM 28.4 °F 23.3 °F 26.6 °F 93% 29.50 in 0.1 mi ENE 4.6 mph - N/A Fog Light Freezing Fog
9:00 AM 28.4 °F - 26.6 °F 93% 29.50 in 0.1 mi NE 2.3 mph - N/A Fog Light Freezing Fog
9:30 AM 28.4 °F 23.3 °F 26.6 °F 93% 29.53 in - East 4.6 mph - N/A Fog Light Freezing Fog
10:00 AM 28.4 °F - 26.6 °F 93% 29.53 in 0.1 mi NE 1.2 mph - N/A Fog Light Freezing Fog
10:30 AM 28.4 °F 23.3 °F 26.6 °F 93% 29.53 in 0.1 mi ESE 4.6 mph - N/A Fog Light Freezing Fog
11:00 AM 28.4 °F 23.3 °F 28.4 °F 100% 29.56 in 0.1 mi ESE 4.6 mph - N/A Fog Light Freezing Fog
11:30 AM 28.4 °F 23.3 °F 26.6 °F 93% 29.56 in 0.1 mi SE 4.6 mph - N/A Fog Light Freezing Fog
12:00 PM 28 °F - 28 °F 99% 29.59 in 0 mi SE 4.5 mph - - Fog Partial Fog
12:00 PM 28.4 °F 24.6 °F 28.4 °F 100% 29.56 in 0.1 mi SE 3.5 mph - N/A Fog Light Freezing Fog
12:30 PM 28.4 °F 23.3 °F 28.4 °F 100% 29.59 in 0.1 mi SE 4.6 mph - N/A Fog Light Freezing Fog
1:00 PM 28.4 °F 23.3 °F 28.4 °F 100% 29.59 in 0.1 mi SE 4.6 mph - N/A Fog Light Freezing Fog
1:30 PM 28.4 °F - 28.4 °F 100% 29.59 in 0.1 mi SSE 2.3 mph - N/A Fog Light Freezing Fog
2:00 PM 30.2 °F 24.3 °F 30.2 °F 100% 29.59 in 0.2 mi ESE 5.8 mph - N/A Fog Light Freezing Fog
2:30 PM 30.2 °F 25.4 °F 30.2 °F 100% 29.59 in 0.2 mi SE 4.6 mph - N/A Fog Light Freezing Fog
3:00 PM 32.0 °F 28.7 °F 30.2 °F 93% 29.59 in 0.4 mi SE 3.5 mph - N/A Fog Light Freezing Fog
3:30 PM 32.0 °F 27.5 °F 32.0 °F 100% 29.62 in 0.4 mi ESE 4.6 mph - N/A Fog Light Freezing Fog
4:00 PM 32.0 °F 27.5 °F 32.0 °F 100% 29.62 in 0.2 mi ESE 4.6 mph - N/A Fog Fog
4:30 PM 32.0 °F 25.6 °F 32.0 °F 100% 29.62 in 0.1 mi ESE 6.9 mph - N/A Fog Light Freezing Fog
5:00 PM 32.0 °F 25.6 °F 32.0 °F 100% 29.62 in 0.1 mi ESE 6.9 mph - N/A Fog Light Freezing Fog
5:30 PM 32.0 °F 25.6 °F 30.2 °F 93% 29.65 in 0.1 mi ESE 6.9 mph - N/A Fog Light Freezing Fog
6:00 PM 31 °F - 31 °F 97% 29.66 in 0 mi ESE 11.2 mph - - Fog Partial Fog
6:00 PM 30.2 °F 21.9 °F 30.2 °F 100% 29.65 in 0.2 mi ESE 9.2 mph - N/A Fog Light Freezing Fog
6:30 PM 30.2 °F - 30.2 °F 100% 29.65 in 0.3 mi ESE 2.3 mph - N/A Fog Light Freezing Fog
7:00 PM 30.2 °F - 30.2 °F 100% 29.65 in 0.5 mi ESE 2.3 mph - N/A Fog Light Freezing Fog
7:30 PM 30.2 °F 22.6 °F 30.2 °F 100% 29.68 in 1.4 mi ESE 8.1 mph - N/A   Mostly Cloudy
8:00 PM 32.0 °F 24.2 °F 32.0 °F 100% 29.68 in 2.5 mi ESE 9.2 mph - N/A   Scattered Clouds
8:30 PM 32.0 °F 24.8 °F 32.0 °F 100% 29.68 in 2.5 mi ESE 8.1 mph - N/A   Mostly Cloudy
9:00 PM 32.0 °F 24.2 °F 32.0 °F 100% 29.68 in 2.5 mi SE 9.2 mph - N/A Rain Light Rain
9:30 PM 33.8 °F 25.3 °F 32.0 °F 93% 29.68 in 2.5 mi ESE 11.5 mph - N/A   Mostly Cloudy
10:00 PM 33.8 °F 25.8 °F 32.0 °F 93% 29.68 in 2.5 mi ESE 10.4 mph - N/A   Mostly Cloudy
10:30 PM 33.8 °F 26.4 °F 32.0 °F 93% 29.71 in 2.5 mi ESE 9.2 mph - N/A   Mostly Cloudy
11:00 PM 33.8 °F 27.0 °F 32.0 °F 93% 29.71 in 2.5 mi ESE 8.1 mph - N/A   Mostly Cloudy
11:30 PM 33.8 °F 27.0 °F 32.0 °F 93% 29.71 in 5.0 mi ESE 8.1 mph - N/A   Mostly Cloudy